| time (UTC) | temp F | wind direction | speed MPH | gust MPH | rain 1hr in | rain 24hr in | rain mn in | humidity % | barometer mb |
| 20260509091543 | 94 | 115 | 11.0 | 16.0 | 0.00 | 0.00 | 0.00 | 52 | 1008.1 |
| 20260509091021 | 95 | 123 | 12.0 | 16.0 | 0.00 | 0.00 | 0.00 | 52 | 1007.9 |
| 20260509090522 | 95 | 123 | 11.0 | 17.0 | 0.00 | 0.00 | 0.00 | 51 | 1007.9 |
| 20260509090041 | 95 | 128 | 12.0 | 17.0 | 0.00 | 0.00 | 0.00 | 50 | 1007.9 |
| 20260509085521 | 96 | 118 | 10.0 | 16.0 | 0.00 | 0.00 | 0.00 | 50 | 1007.9 |
| 20260509085023 | 96 | 114 | 8.0 | 15.0 | 0.00 | 0.00 | 0.00 | 51 | 1007.8 |
| 20260509084537 | 96 | 118 | 8.0 | 12.0 | 0.00 | 0.00 | 0.00 | 48 | 1007.8 |
| 20260509084023 | 96 | 129 | 8.0 | 12.0 | 0.00 | 0.00 | 0.00 | 49 | 1007.9 |
| 20260509083521 | 96 | 136 | 8.0 | 12.0 | 0.00 | 0.00 | 0.00 | 49 | 1007.8 |
| 20260509083038 | 96 | 137 | 9.0 | 15.0 | 0.00 | 0.00 | 0.00 | 47 | 1007.8 |
| 20260509082522 | 96 | 135 | 10.0 | 15.0 | 0.00 | 0.00 | 0.00 | 48 | 1007.7 |
| 20260509082022 | 96 | 145 | 7.0 | 11.0 | 0.00 | 0.00 | 0.00 | 51 | 1007.6 |
| 20260509081543 | 97 | 143 | 7.0 | 11.0 | 0.00 | 0.00 | 0.00 | 48 | 1007.7 |
| 20260509081021 | 96 | 125 | 7.0 | 11.0 | 0.00 | 0.00 | 0.00 | 48 | 1007.5 |
| 20260509080523 | 97 | 159 | 4.0 | 10.0 | 0.00 | 0.00 | 0.00 | 51 | 1007.5 |
| 20260509080039 | 96 | 96 | 6.0 | 10.0 | 0.00 | 0.00 | 0.00 | 50 | 1007.5 |
| 20260509075521 | 96 | 135 | 5.0 | 12.0 | 0.00 | 0.00 | 0.00 | 55 | 1007.6 |
| 20260509075021 | 96 | 166 | 5.0 | 15.0 | 0.00 | 0.00 | 0.00 | 51 | 1007.6 |
| 20260509074545 | 96 | 127 | 7.0 | 16.0 | 0.00 | 0.00 | 0.00 | 50 | 1007.5 |
| 20260509074021 | 97 | 154 | 8.0 | 16.0 | 0.00 | 0.00 | 0.00 | 52 | 1007.5 |
| 20260509073521 | 97 | 157 | 7.0 | 12.0 | 0.00 | 0.00 | 0.00 | 49 | 1007.5 |
| 20260509073033 | 97 | 160 | 2.0 | 9.0 | 0.00 | 0.00 | 0.00 | 49 | 1007.5 |
| 20260509072522 | 97 | 122 | 5.0 | 10.0 | 0.00 | 0.00 | 0.00 | 48 | 1007.5 |
| 20260509072020 | 97 | 128 | 4.0 | 11.0 | 0.00 | 0.00 | 0.00 | 51 | 1007.6 |
| 20260509071553 | 97 | 159 | 7.0 | 11.0 | 0.00 | 0.00 | 0.00 | 51 | 1007.7 |
| 20260509071022 | 97 | 182 | 5.0 | 9.0 | 0.00 | 0.00 | 0.00 | 49 | 1007.7 |
| 20260509070521 | 97 | 133 | 5.0 | 9.0 | 0.00 | 0.00 | 0.00 | 49 | 1007.8 |
| 20260509070042 | 97 | 104 | 6.0 | 9.0 | 0.00 | 0.00 | 0.00 | 52 | 1007.9 |
| 20260509065523 | 97 | 320 | 2.0 | 8.0 | 0.00 | 0.00 | 0.00 | 46 | 1007.9 |
| 20260509065025 | 97 | 165 | 4.0 | 8.0 | 0.00 | 0.00 | 0.00 | 53 | 1008.0 |
| 20260509064543 | 97 | 247 | 2.0 | 9.0 | 0.00 | 0.00 | 0.00 | 49 | 1008.1 |
| 20260509064027 | 97 | 156 | 6.0 | 9.0 | 0.00 | 0.00 | 0.00 | 46 | 1008.2 |
| 20260509063520 | 97 | 153 | 2.0 | 11.0 | 0.00 | 0.00 | 0.00 | 50 | 1008.2 |
| 20260509063036 | 97 | 142 | 5.0 | 12.0 | 0.00 | 0.00 | 0.00 | 52 | 1008.2 |
| 20260509062525 | 98 | 108 | 7.0 | 12.0 | 0.00 | 0.00 | 0.00 | 48 | 1008.2 |
| 20260509062026 | 98 | 112 | 5.0 | 9.0 | 0.00 | 0.00 | 0.00 | 51 | 1008.3 |
| 20260509061543 | 98 | 0 | 1.0 | 7.0 | 0.00 | 0.00 | 0.00 | 48 | 1008.3 |
| 20260509061030 | 97 | 98 | 4.0 | 7.0 | 0.00 | 0.00 | 0.00 | 50 | 1008.5 |
| 20260509060522 | 97 | 293 | 1.0 | 8.0 | 0.00 | 0.00 | 0.00 | 48 | 1008.5 |
| 20260509060041 | 97 | 123 | 3.0 | 8.0 | 0.00 | 0.00 | 0.00 | 48 | 1008.7 |
| 20260509055521 | 97 | 265 | 1.0 | 6.0 | 0.00 | 0.00 | 0.00 | 49 | 1008.8 |
| 20260509055023 | 97 | 173 | 3.0 | 6.0 | 0.00 | 0.00 | 0.00 | 48 | 1008.9 |
| 20260509054548 | 96 | 342 | 3.0 | 7.0 | 0.00 | 0.00 | 0.00 | 48 | 1009.0 |
| 20260509054023 | 96 | 148 | 4.0 | 8.0 | 0.00 | 0.00 | 0.00 | 52 | 1009.1 |
| 20260509053525 | 97 | 138 | 4.0 | 10.0 | 0.00 | 0.00 | 0.00 | 54 | 1009.1 |
| 20260509053040 | 96 | 74 | 5.0 | 10.0 | 0.00 | 0.00 | 0.00 | 52 | 1009.2 |
| 20260509052521 | 96 | 94 | 3.0 | 7.0 | 0.00 | 0.00 | 0.00 | 52 | 1009.2 |
| 20260509052023 | 96 | 144 | 3.0 | 7.0 | 0.00 | 0.00 | 0.00 | 54 | 1009.4 |
| 20260509051539 | 95 | 159 | 4.0 | 8.0 | 0.00 | 0.00 | 0.00 | 52 | 1009.5 |
| 20260509051021 | 95 | 213 | 6.0 | 8.0 | 0.00 | 0.00 | 0.00 | 53 | 1009.6 |
| 20260509050521 | 95 | 185 | 2.0 | 7.0 | 0.00 | 0.00 | 0.00 | 58 | 1009.5 |
| 20260509050045 | 96 | 168 | 4.0 | 7.0 | 0.00 | 0.00 | 0.00 | 55 | 1009.8 |
| 20260509045525 | 96 | 231 | 1.0 | 5.0 | 0.00 | 0.00 | 0.00 | 54 | 1009.9 |
| 20260509045021 | 97 | 360 | 3.0 | 8.0 | 0.00 | 0.00 | 0.00 | 52 | 1009.9 |
| 20260509044542 | 96 | 84 | 2.0 | 10.0 | 0.00 | 0.00 | 0.00 | 53 | 1010.1 |
| 20260509044022 | 95 | 101 | 5.0 | 11.0 | 0.00 | 0.00 | 0.00 | 54 | 1010.3 |
| 20260509043522 | 95 | 78 | 7.0 | 11.0 | 0.00 | 0.00 | 0.00 | 56 | 1010.4 |
| 20260509043040 | 95 | 155 | 1.0 | 6.0 | 0.00 | 0.00 | 0.00 | 54 | 1010.6 |
| 20260509042523 | 94 | 169 | 3.0 | 10.0 | 0.00 | 0.00 | 0.00 | 60 | 1010.7 |
| 20260509042028 | 94 | 155 | 3.0 | 10.0 | 0.00 | 0.00 | 0.00 | 56 | 1010.8 |
| 20260509041607 | 94 | 154 | 2.0 | 6.0 | 0.00 | 0.00 | 0.00 | 54 | 1010.9 |
| 20260509041024 | 93 | 132 | 1.0 | 8.0 | 0.00 | 0.00 | 0.00 | 58 | 1010.9 |
| 20260509040523 | 93 | 192 | 4.0 | 8.0 | 0.00 | 0.00 | 0.00 | 57 | 1011.0 |
| 20260509040039 | 93 | 138 | 5.0 | 8.0 | 0.00 | 0.00 | 0.00 | 59 | 1011.1 |
| 20260509035523 | 93 | 168 | 3.0 | 5.0 | 0.00 | 0.00 | 0.00 | 64 | 1011.2 |
| 20260509035022 | 93 | 194 | 2.0 | 7.0 | 0.00 | 0.00 | 0.00 | 66 | 1011.1 |
| 20260509034537 | 93 | 165 | 4.0 | 7.0 | 0.00 | 0.00 | 0.00 | 58 | 1011.2 |
| 20260509034021 | 94 | 165 | 3.0 | 6.0 | 0.00 | 0.00 | 0.00 | 59 | 1011.3 |
| 20260509033525 | 94 | 93 | 1.0 | 10.0 | 0.00 | 0.00 | 0.00 | 59 | 1011.5 |
| 20260509033040 | 93 | 111 | 5.0 | 11.0 | 0.00 | 0.00 | 0.00 | 57 | 1011.6 |
| 20260509032521 | 93 | 108 | 5.0 | 11.0 | 0.00 | 0.00 | 0.00 | 59 | 1011.6 |
| 20260509032024 | 93 | 186 | 3.0 | 20.0 | 0.00 | 0.00 | 0.00 | 61 | 1011.5 |
| 20260509031540 | 93 | 78 | 2.0 | 20.0 | 0.00 | 0.00 | 0.00 | 58 | 1011.7 |
| 20260509031023 | 93 | 130 | 5.0 | 15.0 | 0.00 | 0.00 | 0.00 | 59 | 1011.7 |
| 20260509030521 | 93 | 205 | 1.0 | 10.0 | 0.00 | 0.00 | 0.00 | 58 | 1011.8 |
| 20260509030039 | 93 | 115 | 3.0 | 9.0 | 0.00 | 0.00 | 0.00 | 59 | 1011.9 |
| 20260509025520 | 93 | 124 | 2.0 | 9.0 | 0.00 | 0.00 | 0.00 | 60 | 1012.0 |
| 20260509025023 | 92 | 103 | 5.0 | 12.0 | 0.00 | 0.00 | 0.00 | 60 | 1012.1 |
| 20260509024539 | 91 | 170 | 2.0 | 12.0 | 0.00 | 0.00 | 0.00 | 64 | 1012.1 |
| 20260509024025 | 92 | 126 | 5.0 | 11.0 | 0.00 | 0.00 | 0.00 | 61 | 1012.0 |
| 20260509023525 | 91 | 157 | 6.0 | 8.0 | 0.00 | 0.00 | 0.00 | 60 | 1012.1 |
| 20260509023103 | 91 | 135 | 2.0 | 7.0 | 0.00 | 0.00 | 0.00 | 63 | 1012.1 |
| 20260509022523 | 91 | 163 | 2.0 | 8.0 | 0.00 | 0.00 | 0.00 | 62 | 1012.2 |
| 20260509022021 | 91 | 161 | 4.0 | 8.0 | 0.00 | 0.00 | 0.00 | 65 | 1012.2 |
| 20260509021541 | 91 | 152 | 5.0 | 8.0 | 0.00 | 0.00 | 0.00 | 63 | 1012.2 |
| 20260509021020 | 91 | 162 | 3.0 | 9.0 | 0.00 | 0.00 | 0.00 | 62 | 1012.2 |
| 20260509020522 | 91 | 110 | 4.0 | 9.0 | 0.00 | 0.00 | 0.00 | 61 | 1012.3 |
| 20260509020050 | 90 | 90 | 4.0 | 8.0 | 0.00 | 0.00 | 0.00 | 63 | 1012.3 |
| 20260509015522 | 90 | 98 | 2.0 | 5.0 | 0.00 | 0.00 | 0.00 | 63 | 1012.4 |
| 20260509015026 | 90 | 170 | 3.0 | 7.0 | 0.00 | 0.00 | 0.00 | 65 | 1012.4 |
| 20260509014540 | 89 | 167 | 4.0 | 8.0 | 0.00 | 0.00 | 0.00 | 65 | 1012.5 |
| 20260509014020 | 89 | 169 | 5.0 | 10.0 | 0.00 | 0.00 | 0.00 | 66 | 1012.5 |
| 20260509013521 | 89 | 156 | 5.0 | 10.0 | 0.00 | 0.00 | 0.00 | 68 | 1012.5 |
| 20260509013043 | 89 | 207 | 5.0 | 7.0 | 0.00 | 0.00 | 0.00 | 65 | 1012.5 |
| 20260509012525 | 88 | 177 | 3.0 | 7.0 | 0.00 | 0.00 | 0.00 | 67 | 1012.6 |
| 20260509012021 | 88 | 221 | 2.0 | 5.0 | 0.00 | 0.00 | 0.00 | 70 | 1012.7 |
| 20260509011537 | 88 | 222 | 2.0 | 5.0 | 0.00 | 0.00 | 0.00 | 68 | 1012.7 |
| 20260509011023 | 88 | 277 | 2.0 | 4.0 | 0.00 | 0.00 | 0.00 | 69 | 1012.7 |
| 20260509010525 | 88 | 165 | 2.0 | 4.0 | 0.00 | 0.00 | 0.00 | 69 | 1012.7 |
| 20260509010042 | 87 | 195 | 2.0 | 5.0 | 0.00 | 0.00 | 0.00 | 68 | 1012.8 |
| 20260509005524 | 87 | 182 | 2.0 | 7.0 | 0.00 | 0.00 | 0.00 | 73 | 1012.7 |
| 20260509005020 | 87 | 203 | 3.0 | 7.0 | 0.00 | 0.00 | 0.00 | 73 | 1012.5 |
| 20260509004542 | 87 | 173 | 5.0 | 7.0 | 0.00 | 0.00 | 0.00 | 71 | 1012.5 |
| 20260509004021 | 87 | 160 | 1.0 | 4.0 | 0.00 | 0.00 | 0.00 | 72 | 1012.3 |
| 20260509003522 | 87 | 148 | 3.0 | 5.0 | 0.00 | 0.00 | 0.00 | 69 | 1012.3 |
| 20260509003039 | 86 | 158 | 1.0 | 6.0 | 0.00 | 0.00 | 0.00 | 69 | 1012.3 |
| 20260509002521 | 86 | 151 | 4.0 | 6.0 | 0.00 | 0.00 | 0.00 | 69 | 1012.3 |
| 20260509002021 | 86 | 0 | 0.0 | 2.0 | 0.00 | 0.00 | 0.00 | 74 | 1012.3 |
| 20260509001536 | 85 | 171 | 1.0 | 3.0 | 0.00 | 0.00 | 0.00 | 74 | 1012.3 |
| 20260509001022 | 85 | 242 | 2.0 | 4.0 | 0.00 | 0.00 | 0.00 | 74 | 1012.3 |
| 20260509000521 | 85 | 198 | 2.0 | 4.0 | 0.00 | 0.00 | 0.00 | 74 | 1012.2 |
| 20260509000043 | 84 | 229 | 2.0 | 3.0 | 0.00 | 0.00 | 0.00 | 74 | 1012.2 |
| 20260508235522 | 84 | 202 | 2.0 | 3.0 | 0.00 | 0.00 | 0.00 | 76 | 1012.2 |
| 20260508235021 | 84 | 212 | 2.0 | 3.0 | 0.00 | 0.00 | 0.00 | 79 | 1012.2 |
| 20260508234541 | 84 | 222 | 2.0 | 3.0 | 0.00 | 0.00 | 0.00 | 80 | 1012.1 |
| 20260508234023 | 84 | 232 | 2.0 | 3.0 | 0.00 | 0.00 | 0.00 | 79 | 1012.1 |
| 20260508233523 | 83 | 202 | 0.0 | 1.0 | 0.00 | 0.00 | 0.00 | 78 | 1012.0 |
| 20260508233039 | 82 | 0 | 0.0 | 0.0 | 0.00 | 0.00 | 0.00 | 80 | 1012.1 |
| 20260508232520 | 82 | 0 | 0.0 | 1.0 | 0.00 | 0.00 | 0.00 | 82 | 1012.0 |
| 20260508232022 | 81 | 0 | 0.0 | 2.0 | 0.00 | 0.00 | 0.00 | 81 | 1012.1 |
| 20260508231537 | 80 | 259 | 0.0 | 2.0 | 0.00 | 0.00 | 0.00 | 84 | 1012.0 |
| 20260508231023 | 80 | 259 | 0.0 | 1.0 | 0.00 | 0.00 | 0.00 | 83 | 1012.0 |
| 20260508230523 | 80 | 259 | 0.0 | 2.0 | 0.00 | 0.00 | 0.00 | 82 | 1012.0 |
| 20260508230041 | 80 | 259 | 1.0 | 2.0 | 0.00 | 0.00 | 0.00 | 83 | 1011.8 |
| 20260508225521 | 80 | 252 | 1.0 | 2.0 | 0.00 | 0.00 | 0.00 | 83 | 1011.8 |
| 20260508225025 | 80 | 0 | 0.0 | 2.0 | 0.00 | 0.00 | 0.00 | 83 | 1011.7 |
| 20260508224535 | 80 | 0 | 0.0 | 2.0 | 0.00 | 0.00 | 0.00 | 83 | 1011.5 |
| 20260508224023 | 79 | 86 | 0.0 | 2.0 | 0.00 | 0.00 | 0.00 | 84 | 1011.5 |
| 20260508223525 | 79 | 0 | 0.0 | 2.0 | 0.00 | 0.00 | 0.00 | 85 | 1011.4 |
| 20260508223040 | 78 | 86 | 0.0 | 2.0 | 0.00 | 0.00 | 0.00 | 85 | 1011.4 |
| 20260508222521 | 78 | 0 | 0.0 | 2.0 | 0.00 | 0.00 | 0.00 | 86 | 1011.3 |
| 20260508222024 | 77 | 84 | 1.0 | 2.0 | 0.00 | 0.00 | 0.00 | 86 | 1011.2 |
| 20260508221538 | 77 | 0 | 0.0 | 0.0 | 0.00 | 0.00 | 0.00 | 86 | 1011.1 |
| 20260508221024 | 77 | 0 | 0.0 | 0.0 | 0.00 | 0.00 | 0.00 | 87 | 1011.1 |
| 20260508220523 | 77 | 0 | 0.0 | 0.0 | 0.00 | 0.00 | 0.00 | 87 | 1011.1 |
| 20260508220035 | 76 | 0 | 0.0 | 0.0 | 0.00 | 0.00 | 0.00 | 88 | 1011.0 |
| 20260508215531 | 76 | 0 | 0.0 | 1.0 | 0.00 | 0.00 | 0.00 | 88 | 1011.0 |
| 20260508215021 | 76 | 0 | 0.0 | 1.0 | 0.00 | 0.00 | 0.00 | 88 | 1010.9 |
| 20260508214536 | 76 | 0 | 0.0 | 1.0 | 0.00 | 0.00 | 0.00 | 88 | 1010.8 |
| 20260508214021 | 76 | 0 | 0.0 | 0.0 | 0.00 | 0.00 | 0.00 | 88 | 1010.8 |
| 20260508213521 | 77 | 0 | 0.0 | 2.0 | 0.00 | 0.00 | 0.00 | 87 | 1010.8 |
| 20260508213041 | 77 | 0 | 0.0 | 3.0 | 0.00 | 0.00 | 0.00 | 86 | 1010.8 |
| 20260508212523 | 77 | 9 | 1.0 | 4.0 | 0.00 | 0.00 | 0.00 | 86 | 1010.8 |
| 20260508212023 | 77 | 17 | 2.0 | 4.0 | 0.00 | 0.00 | 0.00 | 86 | 1010.7 |
| 20260508211542 | 77 | 36 | 2.0 | 4.0 | 0.00 | 0.00 | 0.00 | 86 | 1010.7 |
| 20260508211023 | 76 | 0 | 0.0 | 0.0 | 0.00 | 0.00 | 0.00 | 87 | 1010.7 |
| 20260508210523 | 76 | 0 | 0.0 | 0.0 | 0.00 | 0.00 | 0.00 | 87 | 1010.7 |
| 20260508210040 | 76 | 0 | 0.0 | 0.0 | 0.00 | 0.00 | 0.00 | 88 | 1010.7 |
| 20260508205520 | 76 | 0 | 0.0 | 0.0 | 0.00 | 0.00 | 0.00 | 88 | 1010.7 |
| 20260508205024 | 77 | 0 | 0.0 | 0.0 | 0.00 | 0.00 | 0.00 | 88 | 1010.7 |
| 20260508204544 | 77 | 0 | 0.0 | 0.0 | 0.00 | 0.00 | 0.00 | 88 | 1010.6 |
| 20260508204027 | 77 | 0 | 0.0 | 0.0 | 0.00 | 0.00 | 0.00 | 88 | 1010.6 |
| 20260508203523 | 77 | 0 | 0.0 | 0.0 | 0.00 | 0.00 | 0.00 | 88 | 1010.6 |
| 20260508203039 | 77 | 0 | 0.0 | 0.0 | 0.00 | 0.00 | 0.00 | 88 | 1010.6 |
| 20260508202524 | 77 | 0 | 0.0 | 0.0 | 0.00 | 0.00 | 0.00 | 87 | 1010.6 |
| 20260508202021 | 77 | 0 | 0.0 | 0.0 | 0.00 | 0.00 | 0.00 | 86 | 1010.5 |
| 20260508201539 | 77 | 0 | 0.0 | 0.0 | 0.00 | 0.00 | 0.00 | 86 | 1010.5 |
| 20260508201023 | 78 | 0 | 0.0 | 0.0 | 0.00 | 0.00 | 0.00 | 85 | 1010.4 |
| 20260508200524 | 78 | 0 | 0.0 | 0.0 | 0.00 | 0.00 | 0.00 | 84 | 1010.4 |
| 20260508200100 | 78 | 0 | 0.0 | 0.0 | 0.00 | 0.00 | 0.00 | 84 | 1010.3 |
| 20260508195522 | 78 | 0 | 0.0 | 0.0 | 0.00 | 0.00 | 0.00 | 83 | 1010.3 |
| 20260508195023 | 78 | 0 | 0.0 | 0.0 | 0.00 | 0.00 | 0.00 | 83 | 1010.3 |
| 20260508194538 | 78 | 0 | 0.0 | 0.0 | 0.00 | 0.00 | 0.00 | 83 | 1010.2 |
| 20260508194022 | 78 | 0 | 0.0 | 0.0 | 0.00 | 0.00 | 0.00 | 83 | 1010.3 |
| 20260508193522 | 78 | 0 | 0.0 | 0.0 | 0.00 | 0.00 | 0.00 | 83 | 1010.4 |
| 20260508193046 | 78 | 0 | 0.0 | 0.0 | 0.00 | 0.00 | 0.00 | 84 | 1010.3 |
| 20260508192521 | 78 | 0 | 0.0 | 0.0 | 0.00 | 0.00 | 0.00 | 84 | 1010.2 |
| 20260508192023 | 78 | 0 | 0.0 | 0.0 | 0.00 | 0.00 | 0.00 | 84 | 1010.2 |
| 20260508191539 | 78 | 0 | 0.0 | 0.0 | 0.00 | 0.00 | 0.00 | 85 | 1010.2 |
| 20260508191021 | 78 | 0 | 0.0 | 0.0 | 0.00 | 0.00 | 0.00 | 85 | 1010.3 |
| 20260508190520 | 78 | 0 | 0.0 | 0.0 | 0.00 | 0.00 | 0.00 | 85 | 1010.4 |
| 20260508190035 | 78 | 0 | 0.0 | 0.0 | 0.00 | 0.00 | 0.00 | 85 | 1010.4 |
| 20260508185521 | 78 | 0 | 0.0 | 0.0 | 0.00 | 0.00 | 0.00 | 85 | 1010.4 |
| 20260508185026 | 78 | 0 | 0.0 | 0.0 | 0.00 | 0.00 | 0.00 | 85 | 1010.4 |
| 20260508184543 | 78 | 0 | 0.0 | 0.0 | 0.00 | 0.00 | 0.00 | 85 | 1010.4 |
| 20260508184020 | 78 | 0 | 0.0 | 0.0 | 0.00 | 0.00 | 0.00 | 85 | 1010.4 |
| 20260508183522 | 78 | 0 | 0.0 | 0.0 | 0.00 | 0.00 | 0.00 | 85 | 1010.5 |
| 20260508183042 | 78 | 0 | 0.0 | 0.0 | 0.00 | 0.00 | 0.00 | 85 | 1010.6 |
| 20260508182523 | 78 | 0 | 0.0 | 0.0 | 0.00 | 0.00 | 0.00 | 86 | 1010.5 |
| 20260508182020 | 78 | 0 | 0.0 | 0.0 | 0.00 | 0.00 | 0.00 | 87 | 1010.5 |
| 20260508181546 | 78 | 0 | 0.0 | 0.0 | 0.00 | 0.00 | 0.00 | 87 | 1010.5 |
| 20260508181023 | 78 | 0 | 0.0 | 0.0 | 0.00 | 0.00 | 0.00 | 86 | 1010.4 |
| 20260508180522 | 78 | 0 | 0.0 | 0.0 | 0.00 | 0.00 | 0.00 | 85 | 1010.4 |
| 20260508180038 | 79 | 0 | 0.0 | 0.0 | 0.00 | 0.00 | 0.00 | 85 | 1010.5 |
| 20260508175521 | 79 | 0 | 0.0 | 0.0 | 0.00 | 0.00 | 0.00 | 84 | 1010.6 |
| 20260508175023 | 79 | 0 | 0.0 | 0.0 | 0.00 | 0.00 | 0.00 | 83 | 1010.7 |
| 20260508174539 | 79 | 0 | 0.0 | 0.0 | 0.00 | 0.00 | 0.00 | 83 | 1010.6 |
| 20260508174023 | 79 | 0 | 0.0 | 0.0 | 0.00 | 0.00 | 0.00 | 83 | 1010.6 |
| 20260508173521 | 79 | 0 | 0.0 | 0.0 | 0.00 | 0.00 | 0.00 | 84 | 1010.7 |
| 20260508173041 | 79 | 0 | 0.0 | 0.0 | 0.00 | 0.00 | 0.00 | 82 | 1010.7 |
| 20260508172525 | 79 | 0 | 0.0 | 0.0 | 0.00 | 0.00 | 0.00 | 83 | 1010.7 |
| 20260508172022 | 79 | 0 | 0.0 | 0.0 | 0.00 | 0.00 | 0.00 | 82 | 1010.7 |
| 20260508171539 | 79 | 0 | 0.0 | 0.0 | 0.00 | 0.00 | 0.00 | 81 | 1010.7 |
| 20260508171022 | 80 | 0 | 0.0 | 0.0 | 0.00 | 0.00 | 0.00 | 81 | 1010.8 |
| 20260508170522 | 80 | 0 | 0.0 | 0.0 | 0.00 | 0.00 | 0.00 | 80 | 1010.9 |
| 20260508170039 | 80 | 0 | 0.0 | 0.0 | 0.00 | 0.00 | 0.00 | 80 | 1011.0 |
| 20260508165522 | 80 | 0 | 0.0 | 0.0 | 0.00 | 0.00 | 0.00 | 81 | 1011.0 |
| 20260508165022 | 80 | 0 | 0.0 | 0.0 | 0.00 | 0.00 | 0.00 | 81 | 1011.0 |
| 20260508164542 | 80 | 0 | 0.0 | 0.0 | 0.00 | 0.00 | 0.00 | 80 | 1011.1 |
| 20260508164022 | 80 | 0 | 0.0 | 0.0 | 0.00 | 0.00 | 0.00 | 81 | 1011.1 |
| 20260508163521 | 80 | 0 | 0.0 | 0.0 | 0.00 | 0.00 | 0.00 | 81 | 1011.2 |
| 20260508163038 | 80 | 0 | 0.0 | 0.0 | 0.00 | 0.00 | 0.00 | 80 | 1011.2 |
| 20260508162520 | 81 | 0 | 0.0 | 0.0 | 0.00 | 0.00 | 0.00 | 81 | 1011.2 |
| 20260508162024 | 81 | 0 | 0.0 | 0.0 | 0.00 | 0.00 | 0.00 | 80 | 1011.1 |
| 20260508161543 | 81 | 0 | 0.0 | 0.0 | 0.00 | 0.00 | 0.00 | 79 | 1011.1 |
| 20260508161021 | 81 | 0 | 0.0 | 0.0 | 0.00 | 0.00 | 0.00 | 80 | 1011.2 |
| 20260508160521 | 81 | 0 | 0.0 | 0.0 | 0.00 | 0.00 | 0.00 | 77 | 1011.2 |
| 20260508160038 | 82 | 0 | 0.0 | 0.0 | 0.00 | 0.00 | 0.00 | 77 | 1011.3 |
| 20260508155524 | 82 | 0 | 0.0 | 0.0 | 0.00 | 0.00 | 0.00 | 75 | 1011.4 |
| 20260508155024 | 81 | 0 | 0.0 | 0.0 | 0.00 | 0.00 | 0.00 | 78 | 1011.5 |
| 20260508154602 | 81 | 0 | 0.0 | 0.0 | 0.00 | 0.00 | 0.00 | 77 | 1011.6 |
| 20260508154026 | 81 | 0 | 0.0 | 0.0 | 0.00 | 0.00 | 0.00 | 76 | 1011.7 |
| 20260508153524 | 81 | 0 | 0.0 | 0.0 | 0.00 | 0.00 | 0.00 | 75 | 1011.8 |
| 20260508153036 | 81 | 0 | 0.0 | 0.0 | 0.00 | 0.00 | 0.00 | 76 | 1011.7 |
| 20260508152523 | 81 | 0 | 0.0 | 0.0 | 0.00 | 0.00 | 0.00 | 79 | 1011.8 |
| 20260508152023 | 81 | 0 | 0.0 | 0.0 | 0.00 | 0.00 | 0.00 | 78 | 1011.8 |
| 20260508151540 | 81 | 0 | 0.0 | 0.0 | 0.00 | 0.00 | 0.00 | 77 | 1011.8 |
| 20260508151022 | 81 | 0 | 0.0 | 0.0 | 0.00 | 0.00 | 0.00 | 77 | 1011.9 |
| 20260508150523 | 82 | 0 | 0.0 | 0.0 | 0.00 | 0.00 | 0.00 | 78 | 1011.9 |
| 20260508150037 | 82 | 0 | 0.0 | 0.0 | 0.00 | 0.00 | 0.00 | 76 | 1011.8 |
| 20260508145522 | 82 | 0 | 0.0 | 0.0 | 0.00 | 0.00 | 0.00 | 78 | 1011.8 |
| 20260508145024 | 82 | 0 | 0.0 | 0.0 | 0.00 | 0.00 | 0.00 | 73 | 1011.8 |
| 20260508144554 | 83 | 0 | 0.0 | 0.0 | 0.00 | 0.00 | 0.00 | 73 | 1011.8 |
| 20260508144025 | 83 | 0 | 0.0 | 0.0 | 0.00 | 0.00 | 0.00 | 72 | 1011.8 |
| 20260508143525 | 83 | 0 | 0.0 | 0.0 | 0.00 | 0.00 | 0.00 | 73 | 1011.8 |
| 20260508143039 | 82 | 0 | 0.0 | 0.0 | 0.00 | 0.00 | 0.00 | 74 | 1011.9 |
| 20260508142525 | 82 | 0 | 0.0 | 0.0 | 0.00 | 0.00 | 0.00 | 74 | 1011.9 |
| 20260508142024 | 83 | 0 | 0.0 | 0.0 | 0.00 | 0.00 | 0.00 | 77 | 1011.9 |
| 20260508141539 | 82 | 0 | 0.0 | 0.0 | 0.00 | 0.00 | 0.00 | 74 | 1011.8 |
| 20260508141021 | 82 | 0 | 0.0 | 0.0 | 0.00 | 0.00 | 0.00 | 75 | 1011.8 |
| 20260508140523 | 82 | 0 | 0.0 | 0.0 | 0.00 | 0.00 | 0.00 | 75 | 1011.9 |
| 20260508140037 | 82 | 0 | 0.0 | 0.0 | 0.00 | 0.00 | 0.00 | 76 | 1011.9 |
| 20260508135524 | 82 | 0 | 0.0 | 0.0 | 0.00 | 0.00 | 0.00 | 74 | 1011.8 |
| 20260508135024 | 82 | 0 | 0.0 | 0.0 | 0.00 | 0.00 | 0.00 | 74 | 1011.8 |
| 20260508134551 | 82 | 0 | 0.0 | 0.0 | 0.00 | 0.00 | 0.00 | 78 | 1011.8 |
| 20260508134024 | 82 | 0 | 0.0 | 0.0 | 0.00 | 0.00 | 0.00 | 79 | 1011.8 |
| 20260508133524 | 82 | 0 | 0.0 | 1.0 | 0.00 | 0.00 | 0.00 | 76 | 1011.8 |
| 20260508133050 | 83 | 0 | 0.0 | 1.0 | 0.00 | 0.00 | 0.00 | 74 | 1011.7 |
| 20260508132524 | 83 | 0 | 0.0 | 0.0 | 0.00 | 0.00 | 0.00 | 74 | 1011.5 |
| 20260508132025 | 83 | 0 | 0.0 | 0.0 | 0.00 | 0.00 | 0.00 | 72 | 1011.6 |
| 20260508131545 | 83 | 0 | 0.0 | 2.0 | 0.00 | 0.00 | 0.00 | 73 | 1011.7 |
| 20260508131024 | 83 | 0 | 0.0 | 2.0 | 0.00 | 0.00 | 0.00 | 73 | 1011.8 |
| 20260508130523 | 83 | 352 | 0.0 | 2.0 | 0.00 | 0.00 | 0.00 | 72 | 1011.8 |
| 20260508130038 | 83 | 352 | 1.0 | 3.0 | 0.00 | 0.00 | 0.00 | 71 | 1011.8 |
| 20260508125523 | 83 | 352 | 1.0 | 3.0 | 0.00 | 0.00 | 0.00 | 71 | 1011.8 |
| 20260508125023 | 84 | 360 | 2.0 | 4.0 | 0.00 | 0.00 | 0.00 | 70 | 1011.7 |
| 20260508124538 | 84 | 17 | 2.0 | 4.0 | 0.00 | 0.00 | 0.00 | 69 | 1011.5 |
| 20260508124023 | 84 | 17 | 1.0 | 3.0 | 0.00 | 0.00 | 0.00 | 68 | 1011.4 |
| 20260508123524 | 84 | 101 | 2.0 | 4.0 | 0.00 | 0.00 | 0.00 | 68 | 1011.2 |
| 20260508123046 | 84 | 98 | 3.0 | 4.0 | 0.00 | 0.00 | 0.00 | 68 | 1011.1 |
| 20260508122523 | 84 | 105 | 3.0 | 6.0 | 0.00 | 0.00 | 0.00 | 68 | 1011.0 |
| 20260508122020 | 85 | 117 | 3.0 | 8.0 | 0.00 | 0.00 | 0.00 | 68 | 1010.9 |
| 20260508121545 | 85 | 105 | 4.0 | 8.0 | 0.00 | 0.00 | 0.00 | 67 | 1010.8 |
| 20260508121023 | 85 | 105 | 4.0 | 8.0 | 0.00 | 0.00 | 0.00 | 67 | 1010.7 |
| 20260508120522 | 85 | 114 | 5.0 | 8.0 | 0.00 | 0.00 | 0.00 | 67 | 1010.6 |
| 20260508120039 | 85 | 140 | 4.0 | 10.0 | 0.00 | 0.00 | 0.00 | 67 | 1010.5 |
| 20260508115521 | 85 | 113 | 6.0 | 10.0 | 0.00 | 0.00 | 0.00 | 66 | 1010.4 |
| 20260508115019 | 86 | 119 | 5.0 | 10.0 | 0.00 | 0.00 | 0.00 | 66 | 1010.4 |
| 20260508114538 | 86 | 107 | 6.0 | 11.0 | 0.00 | 0.00 | 0.00 | 65 | 1010.2 |
| 20260508114022 | 86 | 124 | 8.0 | 11.0 | 0.00 | 0.00 | 0.00 | 65 | 1010.1 |
| 20260508113523 | 86 | 121 | 7.0 | 11.0 | 0.00 | 0.00 | 0.00 | 64 | 1009.9 |
| 20260508113040 | 86 | 110 | 9.0 | 11.0 | 0.00 | 0.00 | 0.00 | 64 | 1009.9 |
| 20260508112523 | 87 | 126 | 7.0 | 11.0 | 0.00 | 0.00 | 0.00 | 64 | 1009.9 |
| 20260508112023 | 87 | 112 | 8.0 | 12.0 | 0.00 | 0.00 | 0.00 | 62 | 1009.8 |
| 20260508111538 | 87 | 124 | 8.0 | 13.0 | 0.00 | 0.00 | 0.00 | 62 | 1009.7 |
| 20260508111023 | 87 | 103 | 9.0 | 14.0 | 0.00 | 0.00 | 0.00 | 62 | 1009.6 |
| 20260508110523 | 87 | 136 | 9.0 | 14.0 | 0.00 | 0.00 | 0.00 | 61 | 1009.8 |
| 20260508110039 | 87 | 121 | 11.0 | 14.0 | 0.00 | 0.00 | 0.00 | 61 | 1009.7 |
| 20260508105523 | 88 | 119 | 10.0 | 14.0 | 0.00 | 0.00 | 0.00 | 61 | 1009.6 |
| 20260508105020 | 88 | 126 | 7.0 | 12.0 | 0.00 | 0.00 | 0.00 | 61 | 1009.6 |
| 20260508104538 | 88 | 128 | 7.0 | 13.0 | 0.00 | 0.00 | 0.00 | 62 | 1009.5 |
| 20260508104020 | 88 | 124 | 10.0 | 13.0 | 0.00 | 0.00 | 0.00 | 61 | 1009.4 |
| 20260508103520 | 88 | 113 | 9.0 | 13.0 | 0.00 | 0.00 | 0.00 | 61 | 1009.3 |
| 20260508103041 | 89 | 132 | 7.0 | 11.0 | 0.00 | 0.00 | 0.00 | 62 | 1009.2 |
| 20260508102520 | 89 | 126 | 8.0 | 11.0 | 0.00 | 0.00 | 0.00 | 62 | 1009.2 |
| 20260508102021 | 89 | 127 | 8.0 | 11.0 | 0.00 | 0.00 | 0.00 | 62 | 1009.2 |
| 20260508101540 | 90 | 121 | 8.0 | 11.0 | 0.00 | 0.00 | 0.00 | 61 | 1009.2 |
| 20260508101021 | 90 | 122 | 7.0 | 11.0 | 0.00 | 0.00 | 0.00 | 61 | 1009.1 |
| 20260508100524 | 90 | 112 | 7.0 | 14.0 | 0.00 | 0.00 | 0.00 | 58 | 1009.0 |
| 20260508100036 | 90 | 113 | 8.0 | 14.0 | 0.00 | 0.00 | 0.00 | 58 | 1008.9 |
| 20260508095519 | 91 | 125 | 8.0 | 14.0 | 0.00 | 0.00 | 0.00 | 58 | 1008.8 |
| 20260508095020 | 91 | 109 | 8.0 | 13.0 | 0.00 | 0.00 | 0.00 | 58 | 1008.7 |
| 20260508094541 | 91 | 136 | 8.0 | 13.0 | 0.00 | 0.00 | 0.00 | 58 | 1008.6 |
| 20260508094022 | 91 | 121 | 9.0 | 13.0 | 0.00 | 0.00 | 0.00 | 59 | 1008.5 |